Home > Weather > Nijmegen > Past weeks

Flag for Netherlands Past Weather in Nijmegen, Netherlands — Yesterday and Last 2 Weeks

Now
64 °F

Mild.


Feels Like: 64 °F
Forecast: 58 / 74 °F
Wind: 8 mph from Southeast

Location: Volkel

Current Time: May 31, 2016 at 12:10:03 PM

Latest Report: May 31, 2016 at 11:25 AM


Visibility: N/A

Pressure: 29.77 "Hg

Humidity: 78%

Dew Point: 57 °F

Location of NijmegenLocation

Past Weather in Nijmegen — Graph

°F

Nijmegen Temperature Yesterday

Maximum temperature yesterday: 66 °F (at 2:59 PM)
Minimum temperature yesterday: 59 °F (at 9:25 AM)
Average temperature yesterday: 62 °F

High & Low Weather Summary for the Past Weeks

 TemperatureHumidityPressure
High75 °F (May 21, 4:55 PM)100% (May 20, 12:25 AM)30.12 "Hg (May 20, 12:25 AM)
Low43 °F (May 26, 4:58 AM)44% (May 21, 5:25 PM)29.59 "Hg (May 30, 6:55 PM)
Average58 °F81%29.89 "Hg
* Reported May 16 10:25 AM — May 31 10:55 AM, Nijmegen, Weather by CustomWeather, © 2016

Note: Actual official high and low records may vary slightly from our data, if they occured in-between our weather recording intervals... More about our weather records

Advertising

Nijmegen Weather History for the Previous 24 Hours

Scroll right to see more
 ConditionsComfort  
Time TempWeatherWind HumidityBarometerVisibility
10:55 AM
Tue, May 31
64 °FMild.9 mph73%29.77 "HgN/A
10:25 AM64 °FMild.13 mph73%29.74 "HgN/A
9:55 AM64 °FMild.12 mph78%29.74 "HgN/A
9:25 AM63 °FMild.12 mph77%29.74 "HgN/A
8:55 AM63 °FMild.10 mph77%29.74 "HgN/A
8:25 AM63 °FMild.10 mph83%29.71 "HgN/A
7:55 AM63 °FMild.10 mph88%29.71 "HgN/A
7:25 AM61 °FCool.9 mph88%29.71 "HgN/A
6:55 AM59 °FPartly sunny.7 mph94%29.68 "HgN/A
6:25 AM57 °FPartly sunny.7 mph100%29.68 "HgN/A
5:55 AM57 °FCool.7 mph94%29.68 "HgN/A
5:25 AM57 °FFog.7 mph100%29.68 "Hg6 mi
5:04 AM57 °FFog.6 mph100%29.68 "Hg2 mi
4:55 AM57 °FFog.6 mph100%29.68 "Hg2 mi
4:25 AM57 °FFog.6 mph100%29.65 "Hg2 mi
4:02 AM59 °FFog.5 mph94%29.65 "Hg2 mi
3:25 AM59 °FFog.6 mph100%29.65 "Hg2 mi
2:55 AM59 °FFog.7 mph100%29.65 "Hg1 mi
2:25 AM61 °FFog.7 mph100%29.65 "Hg1 mi
1:55 AM61 °FFog.6 mph100%29.65 "Hg1 mi
1:25 AM61 °FFog.5 mph100%29.65 "Hg1 mi
1:03 AM63 °FFog.6 mph94%29.65 "Hg2 mi
12:55 AM63 °FFog.6 mph94%29.65 "Hg3 mi
12:25 AM63 °FFog.5 mph94%29.65 "Hg2 mi
11:59 PM
Mon, May 30
63 °FFog.7 mph94%29.62 "Hg3 mi
11:55 PM61 °FFog.7 mph100%29.62 "Hg3 mi
11:25 PM61 °FFog.5 mph100%29.62 "Hg4 mi
10:55 PM61 °FLight rain. Passing clouds.7 mph100%29.62 "HgN/A
10:25 PM61 °FRain. Broken clouds.7 mph100%29.62 "HgN/A
9:55 PM63 °FLight rain. Broken clouds.8 mph94%29.59 "HgN/A
9:25 PM63 °FRain. Partly sunny.12 mph94%29.62 "HgN/A
8:55 PM63 °FRain showers. Broken clouds.14 mph100%29.59 "Hg6 mi
8:25 PM64 °FThunderstorms. Fog.8 mph94%29.59 "Hg6 mi
7:55 PM64 °FThunderstorms. Fog.6 mph94%29.59 "Hg3 mi
7:25 PM63 °FLight rain. Partly sunny.9 mph100%29.59 "Hg1 mi
6:55 PM63 °FDrizzle. Broken clouds.8 mph100%29.59 "Hg2 mi
6:01 PM63 °FStrong thunderstorms. Broken clouds.13 mph94%29.62 "Hg1 mi
5:25 PM63 °FThunderstorms. Partly sunny.7 mph100%29.62 "Hg1 mi
4:55 PM64 °FThunderstorms. Partly sunny.7 mph94%29.62 "Hg2 mi
4:25 PM64 °FThunderstorms. Broken clouds.6 mph94%29.62 "Hg3 mi
3:55 PM64 °FLight rain. Mostly cloudy.6 mph94%29.62 "Hg3 mi
3:25 PM64 °FFog.5 mph94%29.65 "Hg4 mi
2:59 PM66 °FFog.7 mph94%29.62 "Hg4 mi
2:25 PM64 °FFog.6 mph94%29.65 "Hg3 mi
2:03 PM63 °FRain showers. Broken clouds.7 mph94%29.65 "Hg3 mi
12:55 PM63 °FFog.7 mph94%29.65 "Hg3 mi
12:25 PM61 °FFog.9 mph94%29.65 "Hg3 mi
Weather by CustomWeather, © 2016

See weather overviewHow to use our weather pages